Date String (YYYY-MM-DD hh:mm:ss) UTC,Instrument flags,absolute air pressure of the measurement (hPa),sample flow rate (lpm),inlet stack bypass flow (lpm),air temperature of the measurement (°C),ambient temperature measured by the external sensor (°C),aerosol sample conditioner tube jacket temperature (°C),OPC LED temperature (°C),internal box temperature (°C),relative humidity of the measurement (%),span deviation,mass concentration of particles derived from Lorenz-Mie calculation of OPC scattering (μg/m³),mass concentration of particles derived from Lorenz-Mie calculation of OPC scattering (μg/m³),mass concentration of particles derived from Lorenz-Mie calculation of OPC scattering (μg/m³)
DateTimeUTC,F1_M11,P_M11,Q1_M11,Q2_M11,T1_M11,T2_M11,T3_M11,T4_M11,T5_M11,U1_M11,ZSPAN_M11,X0_M11,X2_M11,X1_M11
2024-05-28 13:00:00,SystemResetWarning,0835.5,5.00,000.00,029.6,028.8,000.0,037.9,031.3,015.5,0000.0,0008.77,0003.44,0002.82
2024-05-28 13:01:00,SystemResetWarning,0835.5,5.00,000.00,029.6,028.8,000.0,037.9,031.3,015.7,0000.0,0009.45,0003.43,0002.81
2024-05-28 13:02:00,SystemResetWarning,0835.5,5.00,000.00,029.6,028.8,000.0,037.9,031.3,015.8,0000.0,0011.10,0003.46,0002.83
2024-05-28 13:03:00,SystemResetWarning,0835.5,5.00,000.00,029.6,028.8,000.0,037.9,031.3,015.7,0000.0,0011.51,0003.46,0002.80
2024-05-28 13:04:00,SystemResetWarning,0835.5,5.00,000.00,029.6,028.8,000.0,037.9,031.3,015.8,0000.0,0011.17,0003.47,0002.77
2024-05-28 13:05:00,SystemResetWarning,0835.5,4.99,000.00,029.6,028.8,000.0,037.9,031.3,015.7,0000.0,0011.73,0003.49,0002.74
2024-05-28 13:06:00,SystemResetWarning,0835.5,4.99,000.00,029.6,028.8,000.0,038.0,031.3,015.6,0000.0,0011.73,0003.46,0002.71
2024-05-28 13:07:00,SystemResetWarning,0835.5,5.00,000.00,029.6,028.9,000.0,038.0,031.3,016.2,0000.0,0011.79,0003.44,0002.67
2024-05-28 13:08:00,SystemResetWarning,0835.5,4.99,000.00,029.6,028.9,000.0,038.0,031.3,016.0,0000.0,0011.17,0003.49,0002.65
2024-05-28 13:09:00,SystemResetWarning,0835.5,5.00,000.00,029.6,028.9,000.0,038.0,031.3,016.1,0000.0,0010.84,0003.47,0002.63
2024-05-28 13:10:00,SystemResetWarning,0835.5,5.01,000.00,029.6,028.9,000.0,038.0,031.3,017.7,0000.0,0011.02,0003.49,0002.62
2024-05-28 13:11:00,SystemResetWarning,0835.4,5.01,000.00,029.6,028.9,000.0,038.0,031.3,017.5,0000.0,0011.29,0003.52,0002.62
2024-05-28 13:12:00,SystemResetWarning,0835.5,4.99,000.00,029.6,028.9,000.0,038.0,031.3,016.7,0000.0,0010.84,0003.54,0002.63
2024-05-28 13:13:00,SystemResetWarning,0835.5,4.99,000.00,029.6,028.9,000.0,038.0,031.3,016.6,0000.0,0009.24,0003.52,0002.61
2024-05-28 13:14:00,SystemResetWarning,0835.5,5.00,000.00,029.6,028.9,000.0,038.0,031.3,017.6,0000.0,0009.13,0003.55,0002.62
2024-05-28 13:15:00,SystemResetWarning,0835.5,5.00,000.00,029.7,028.9,000.0,038.0,031.4,017.7,0000.0,0009.63,0003.58,0002.65
2024-05-28 13:16:00,SystemResetWarning,0835.5,5.01,000.00,029.7,028.9,000.0,038.0,031.4,017.6,0000.0,0009.99,0003.61,0002.69
2024-05-28 13:17:00,SystemResetWarning,0835.5,5.01,000.00,029.7,028.9,000.0,038.0,031.4,017.6,0000.0,0010.29,0003.66,0002.73
2024-05-28 13:18:00,SystemResetWarning,0835.5,5.00,000.00,029.7,028.9,000.0,038.0,031.3,017.4,0000.0,0010.85,0003.65,0002.76
2024-05-28 13:19:00,SystemResetWarning,0835.5,5.00,000.00,029.7,028.9,000.0,038.0,031.3,016.9,0000.0,0011.04,0003.64,0002.78
2024-05-28 13:20:00,SystemResetWarning,0835.5,4.99,000.00,029.7,028.9,000.0,038.0,031.4,017.2,0000.0,0011.18,0003.65,0002.83
2024-05-28 13:21:00,SystemResetWarning,0835.5,5.00,000.00,029.7,028.9,000.0,038.0,031.4,017.7,0000.0,0011.41,0003.64,0002.87
2024-05-28 13:22:00,SystemResetWarning,0835.5,5.00,000.00,029.7,028.9,000.0,038.0,031.4,017.9,0000.0,0011.99,0003.64,0002.88
2024-05-28 13:23:00,SystemResetWarning,0835.5,5.01,000.00,029.7,028.9,000.0,038.0,031.4,017.5,0000.0,0011.92,0003.63,0002.87
2024-05-28 13:24:00,SystemResetWarning,0835.5,5.01,000.00,029.7,028.9,000.0,038.0,031.4,017.9,0000.0,0012.65,0003.70,0002.89
2024-05-28 13:25:00,SystemResetWarning,0835.5,5.00,000.00,029.7,028.9,000.0,038.0,031.4,017.7,0000.0,0012.56,0003.68,0002.90
2024-05-28 13:26:00,SystemResetWarning,0835.5,5.00,000.00,029.7,028.9,000.0,038.1,031.4,016.9,0000.0,0012.17,0003.67,0002.91
2024-05-28 13:27:00,SystemResetWarning,0835.5,4.99,000.00,029.7,028.9,000.0,038.1,031.4,016.8,0000.0,0011.66,0003.62,0002.87
2024-05-28 13:28:00,SystemResetWarning,0835.5,5.00,000.00,029.7,028.9,000.0,038.1,031.4,016.9,0000.0,0011.94,0003.57,0002.86
2024-05-28 13:29:00,SystemResetWarning,0835.5,5.00,000.00,029.7,028.9,000.0,038.1,031.4,016.9,0000.0,0011.84,0003.59,0002.87
2024-05-28 13:30:00,SystemResetWarning,0835.5,5.00,000.00,029.7,028.9,000.0,038.1,031.4,017.2,0000.0,0012.02,0003.60,0002.87
2024-05-28 13:31:00,SystemResetWarning,0835.4,5.00,000.00,029.7,028.9,000.0,038.1,031.4,017.1,0000.0,0012.06,0003.62,0002.88
2024-05-28 13:32:00,SystemResetWarning,0835.4,5.00,000.00,029.7,028.9,000.0,038.1,031.4,017.0,0000.0,0011.99,0003.69,0002.88
2024-05-28 13:33:00,SystemResetWarning,0835.4,5.01,000.00,029.7,028.9,000.0,038.1,031.4,016.8,0000.0,0011.62,0003.69,0002.89
2024-05-28 13:34:00,SystemResetWarning,0835.4,5.00,000.00,029.7,029.0,000.0,038.1,031.4,016.6,0000.0,0013.04,0003.73,0002.91
2024-05-28 13:35:00,SystemResetWarning,0835.4,5.00,000.00,029.7,029.0,000.0,038.1,031.4,016.6,0000.0,0012.96,0003.70,0002.92
2024-05-28 13:36:00,SystemResetWarning,0835.4,5.00,000.00,029.7,029.0,000.0,038.1,031.4,016.4,0000.0,0012.55,0003.70,0002.91
2024-05-28 13:37:00,SystemResetWarning,0835.5,5.01,000.00,029.8,029.0,000.0,038.1,031.4,016.7,0000.0,0012.74,0003.68,0002.90
2024-05-28 13:38:00,SystemResetWarning,0835.5,5.00,000.00,029.8,029.0,000.0,038.1,031.4,016.6,0000.0,0012.70,0003.70,0002.90
2024-05-28 13:39:00,SystemResetWarning,0835.5,5.00,000.00,029.8,029.0,000.0,038.1,031.4,016.4,0000.0,0012.46,0003.74,0002.91
2024-05-28 13:40:00,SystemResetWarning,0835.4,5.00,000.00,029.8,029.0,000.0,038.1,031.4,016.7,0000.0,0011.80,0003.72,0002.90
2024-05-28 13:41:00,SystemResetWarning,0835.5,5.01,000.00,029.8,029.0,000.0,038.1,031.4,016.5,0000.0,0011.41,0003.71,0002.88
2024-05-28 13:42:00,SystemResetWarning,0835.5,5.00,000.00,029.8,029.0,000.0,038.1,031.4,016.8,0000.0,0011.76,0003.68,0002.86
2024-05-28 13:43:00,SystemResetWarning,0835.4,5.00,000.00,029.8,029.0,000.0,038.1,031.5,017.4,0000.0,0011.60,0003.63,0002.84
2024-05-28 13:44:00,SystemResetWarning,0835.4,4.99,000.00,029.8,029.0,000.0,038.1,031.4,017.0,0000.0,0011.21,0003.62,0002.83
2024-05-28 13:45:00,SystemResetWarning,0835.3,5.01,000.00,029.8,029.0,000.0,038.1,031.4,016.5,0000.0,0009.74,0003.60,0002.80
2024-05-28 13:46:00,SystemResetWarning,0835.4,4.99,000.00,029.8,029.0,000.0,038.1,031.4,016.3,0000.0,0009.44,0003.57,0002.78
2024-05-28 13:47:00,SystemResetWarning,0835.3,4.99,000.00,029.8,029.0,000.0,038.1,031.5,016.3,0000.0,0009.64,0003.55,0002.77
2024-05-28 13:48:00,SystemResetWarning,0835.4,4.99,000.00,029.8,029.0,000.0,038.1,031.5,016.5,0000.0,0010.26,0003.56,0002.77
2024-05-28 13:49:00,SystemResetWarning,0835.4,5.01,000.00,029.8,029.0,000.0,038.1,031.4,016.2,0000.0,0010.46,0003.54,0002.75
2024-05-28 13:50:00,SystemResetWarning,0835.4,5.01,000.00,029.8,029.0,000.0,038.1,031.5,016.1,0000.0,0010.71,0003.48,0002.70
2024-05-28 13:51:00,SystemResetWarning,0835.4,4.99,000.00,029.8,029.0,000.0,038.1,031.5,016.1,0000.0,0011.46,0003.49,0002.68
2024-05-28 13:52:00,SystemResetWarning,0835.5,4.99,000.00,029.8,029.0,000.0,038.1,031.5,016.0,0000.0,0012.57,0003.48,0002.68
2024-05-28 13:53:00,SystemResetWarning,0835.5,5.00,000.00,029.8,029.0,000.0,038.2,031.5,015.9,0000.0,0012.08,0003.50,0002.68
2024-05-28 13:54:00,SystemResetWarning,0835.5,5.00,000.00,029.8,029.0,000.0,038.2,031.5,015.9,0000.0,0012.20,0003.48,0002.66
2024-05-28 13:55:00,SystemResetWarning,0835.5,5.01,000.00,029.8,029.0,000.0,038.2,031.5,016.0,0000.0,0012.61,0003.45,0002.62
2024-05-28 13:56:00,SystemResetWarning,0835.5,5.00,000.00,029.8,029.0,000.0,038.2,031.5,016.0,0000.0,0012.49,0003.42,0002.62
2024-05-28 13:57:00,SystemResetWarning,0835.5,5.00,000.00,029.8,029.0,000.0,038.2,031.5,016.2,0000.0,0012.37,0003.40,0002.60
2024-05-28 13:58:00,SystemResetWarning,0835.5,4.99,000.00,029.8,029.1,000.0,038.2,031.5,016.5,0000.0,0012.44,0003.41,0002.58
2024-05-28 13:59:00,SystemResetWarning,0835.5,4.99,000.00,029.8,029.1,000.0,038.2,031.5,016.6,0000.0,0011.91,0003.42,0002.58
